This is the latest recevied weather packets stored in our database for station/object DJ2RF. If no packets are shown the sender has not sent any weather packets the latest 10 day(s).
| Time | Temp. | Humidity | Pressure | Rain* | Wind** | Luminosity | Snow |
|---|---|---|---|---|---|---|---|
| 1777882535 | 18.33° C | 50% | 1016.9 hPa | 0 mm | - | - | - |
| 1777881995 | 18.33° C | 52% | 1016.9 hPa | 0 mm | - | - | - |
| 1777881415 | 17.78° C | 52% | 1016.9 hPa | 0 mm | - | - | - |
| 1777880310 | 16.67° C | 54% | 1016.8 hPa | 0 mm | - | - | - |
| 1777879750 | 16.11° C | 56% | 1016.9 hPa | 0 mm | - | - | - |
| 1777879196 | 16.11° C | 57% | 1017.1 hPa | 0 mm | - | - | - |
| 1777878686 | 16.11° C | 57% | 1017 hPa | 0 mm | - | - | - |
| 1777878185 | 15.56° C | 59% | 1017 hPa | 0 mm | - | - | - |
| 1777877690 | 15.56° C | 59% | 1016.8 hPa | 0 mm | - | - | - |
| 1777877180 | 15° C | 61% | 1016.7 hPa | 0 mm | - | - | - |
| 1777876586 | 15° C | 63% | 1016.6 hPa | 0 mm | - | - | - |
| 1777876103 | 14.44° C | 63% | 1016.8 hPa | 0 mm | - | - | - |
| 1777875552 | 14.44° C | 64% | 1016.9 hPa | 0 mm | - | - | - |
| 1777875044 | 13.89° C | 64% | 1017 hPa | 0 mm | - | - | - |
| 1777874478 | 13.89° C | 64% | 1016.9 hPa | 0 mm | - | - | - |
| 1777873941 | 13.89° C | 64% | 1017 hPa | 0 mm | - | - | - |
| 1777873426 | 13.33° C | 64% | 1016.9 hPa | 0 mm | - | - | - |
| 1777872836 | 13.33° C | 65% | 1017 hPa | 0 mm | - | - | - |
| 1777872266 | 13.33° C | 65% | 1016.9 hPa | 0 mm | - | - | - |
| 1777871761 | 13.33° C | 64% | 1017 hPa | 0 mm | - | - | - |
| 1777871170 | 13.33° C | 64% | 1016.8 hPa | 0 mm | - | - | - |
| 1777870590 | 13.33° C | 63% | 1016.8 hPa | 0 mm | - | - | - |
| 1777870026 | 12.78° C | 63% | 1016.9 hPa | 0 mm | - | - | - |
| 1777869476 | 12.78° C | 64% | 1016.9 hPa | 0 mm | - | - | - |
| 1777868970 | 13.33° C | 63% | 1016.8 hPa | 0 mm | - | - | - |
* Rain latest hour (hover to see other rain measurements)
** Current wind speed in m/s (hover to see current wind gust speed)